Location: Worth Mountain WMA
(34.9569°N, 81.4819°W)
Time: 15:19:29
(UTC-04:00)

USA 267 - Pass Details

Date: 18 August 2017
Orbit: 1100 x 1108 km, 123.0° (Epoch: 22 September)

Event Time Altitude Azimuth Distance (km) Brightness Sun altitude
Exits shadow 20:29:02 - 138° (SE) 3,902 5.6 -4.5°
Rises 20:29:02 0° 138° (SE) 3,901 5.6 -4.5°
Reaches altitude 10° 20:31:30 10° 139° (SE) 2,947 5.0 -5.0°
Maximum altitude 20:38:01 82° 227° (SW) 1,115 3.4 -6.2°
Drops below altitude 10° 20:44:35 10° 315° (NW) 2,964 6.8 -7.5°
Sets 20:47:05 0° 317° (NW) 3,925 7.5 -8.0°
